TOM2LV LGKR-EGFF

Flight info

Callsign TOM2LV
Flight time N/A
Altitude 32000
Route OLGAT DCT CRAYE/N0450F360 DCT GISAM DCT ORAKA DCT SPL DCT ZDA DCT PEVAL DCT BADOP DCT MOBDO DCT SOTOV DCT KPT DCT TEDGO DCT LIRSU DCT DENUT L610 KOPUL Q63 ICTAM
Aircraft B738/M-SDFGHIJ1RWXYZ/LB1

Departure

Time N/A
Airport Corfu Ioannis Kapodistrias International Airport (LGKR)

Arrival

Time 2026-05-04 16:03
Airport Cardiff International Airport (EGFF)
Time Latitude Longitude Altitude Speed Heading
2026-05-04 15:43 51.52882 -0.93998 36019 ft 447 kts 268°
2026-05-04 15:43 51.52806 -1.04011 36022 ft 448 kts 268°
2026-05-04 15:44 51.52721 -1.14022 36020 ft 448 kts 268°
2026-05-04 15:44 51.52188 -1.23921 36025 ft 447 kts 260°
2026-05-04 15:45 51.51253 -1.33795 36019 ft 448 kts 259°
2026-05-04 15:45 51.50319 -1.43656 35983 ft 439 kts 260°
2026-05-04 15:45 51.49879 -1.48468 35598 ft 432 kts 260°
2026-05-04 15:46 51.49450 -1.53220 35064 ft 429 kts 260°
2026-05-04 15:46 51.49024 -1.57952 34536 ft 426 kts 260°
2026-05-04 15:46 51.48602 -1.62650 34028 ft 423 kts 260°
2026-05-04 15:46 51.48185 -1.67257 33437 ft 421 kts 260°
2026-05-04 15:47 51.47761 -1.71929 32550 ft 425 kts 259°
2026-05-04 15:47 51.47330 -1.76647 31706 ft 428 kts 259°
2026-05-04 15:47 51.46893 -1.81398 30880 ft 431 kts 259°
2026-05-04 15:47 51.46453 -1.86169 30072 ft 433 kts 259°
2026-05-04 15:48 51.46010 -1.90949 29131 ft 433 kts 259°
2026-05-04 15:48 51.45565 -1.95727 28225 ft 434 kts 259°
2026-05-04 15:48 51.44674 -2.05233 26484 ft 433 kts 259°
2026-05-04 15:49 51.44225 -2.10000 25658 ft 432 kts 259°
2026-05-04 15:49 51.43773 -2.14766 24843 ft 431 kts 259°
2026-05-04 15:49 51.43323 -2.19500 24057 ft 429 kts 259°
2026-05-04 15:49 51.42871 -2.24231 23229 ft 428 kts 259°
2026-05-04 15:50 51.42420 -2.28933 22327 ft 426 kts 259°
2026-05-04 15:50 51.41968 -2.33625 21448 ft 424 kts 259°
2026-05-04 15:50 51.41517 -2.38287 20607 ft 423 kts 259°
2026-05-04 15:50 51.41066 -2.42928 19775 ft 421 kts 259°
2026-05-04 15:51 51.40614 -2.47555 18968 ft 419 kts 259°
2026-05-04 15:51 51.40158 -2.52093 18175 ft 417 kts 259°
2026-05-04 15:51 51.39689 -2.56681 17289 ft 415 kts 259°
2026-05-04 15:51 51.39223 -2.61234 16433 ft 413 kts 259°
2026-05-04 15:52 51.38761 -2.65748 15694 ft 409 kts 259°
2026-05-04 15:52 51.38305 -2.70198 15075 ft 401 kts 259°
2026-05-04 15:52 51.38008 -2.74608 14459 ft 396 kts 266°
2026-05-04 15:52 51.38042 -2.78994 13863 ft 391 kts 271°
2026-05-04 15:53 51.38194 -2.83312 13202 ft 386 kts 272°
2026-05-04 15:53 51.38359 -2.87524 12556 ft 381 kts 272°
2026-05-04 15:53 51.38505 -2.91740 11911 ft 377 kts 271°
2026-05-04 15:53 51.38623 -2.95904 11285 ft 372 kts 271°
2026-05-04 15:54 51.38721 -3.00021 10759 ft 366 kts 270°
2026-05-04 15:54 51.38805 -3.04015 10562 ft 351 kts 270°
2026-05-04 15:54 51.38880 -3.07845 10343 ft 338 kts 270°
2026-05-04 15:54 51.38927 -3.10318 10198 ft 330 kts 270°
2026-05-04 15:55 51.39014 -3.15061 10026 ft 312 kts 270°
2026-05-04 15:55 51.39075 -3.18438 9915 ft 294 kts 270°
2026-05-04 15:55 51.39133 -3.21635 9551 ft 283 kts 270°
2026-05-04 15:55 51.39170 -3.23755 9136 ft 281 kts 270°
2026-05-04 15:56 51.39222 -3.26879 8469 ft 281 kts 270°
2026-05-04 15:56 51.39273 -3.29957 7860 ft 279 kts 270°
2026-05-04 15:56 51.39324 -3.33054 7272 ft 277 kts 270°
2026-05-04 15:56 51.39443 -3.36123 6677 ft 276 kts 275°
2026-05-04 15:57 51.39655 -3.39166 6094 ft 274 kts 276°
2026-05-04 15:57 51.39871 -3.42191 5505 ft 272 kts 276°
2026-05-04 15:57 51.40075 -3.45190 4954 ft 269 kts 275°
2026-05-04 15:57 51.40270 -3.48151 4424 ft 265 kts 276°
2026-05-04 15:58 51.40459 -3.51070 3959 ft 259 kts 276°
2026-05-04 15:58 51.40640 -3.53874 3699 ft 248 kts 276°
2026-05-04 15:58 51.40812 -3.56564 3451 ft 244 kts 276°
2026-05-04 15:58 51.41246 -3.59141 3144 ft 240 kts 304°
2026-05-04 15:59 51.42515 -3.60716 2899 ft 230 kts 345°
2026-05-04 15:59 51.44058 -3.60821 2689 ft 219 kts 15°
2026-05-04 15:59 51.45341 -3.59711 2488 ft 205 kts 49°
2026-05-04 15:59 51.45830 -3.57699 2282 ft 194 kts 91°
2026-05-04 16:00 51.45678 -3.55565 2270 ft 193 kts 95°
2026-05-04 16:00 51.45490 -3.53466 2201 ft 186 kts 105°
2026-05-04 16:00 51.45051 -3.51604 2206 ft 173 kts 110°
2026-05-04 16:00 51.44554 -3.49855 2183 ft 171 kts 114°
2026-05-04 16:01 51.44021 -3.48147 2012 ft 175 kts 115°
2026-05-04 16:01 51.43470 -3.46404 1774 ft 174 kts 115°
2026-05-04 16:01 51.42937 -3.44722 1539 ft 162 kts 114°
2026-05-04 16:01 51.42452 -3.43188 1371 ft 143 kts 114°
2026-05-04 16:02 51.42014 -3.41796 1142 ft 140 kts 115°
2026-05-04 16:02 51.41575 -3.40408 957 ft 139 kts 114°
2026-05-04 16:02 51.40697 -3.37622 520 ft 138 kts 113°
2026-05-04 16:03 51.40267 -3.36246 315 ft 138 kts 112°
2026-05-04 16:03 51.39838 -3.34892 218 ft 127 kts 114°
2026-05-04 16:03 51.39538 -3.33939 218 ft 64 kts 117°
2026-05-04 16:03 51.39422 -3.33574 222 ft 24 kts 117°
2026-05-04 16:04 51.39350 -3.33344 222 ft 23 kts 116°
2026-05-04 16:04 51.39319 -3.33095 221 ft 7 kts 26°
2026-05-04 16:04 51.39364 -3.33058 220 ft 7 kts 27°
2026-05-04 16:05 51.39413 -3.33035 219 ft 8 kts 342°
2026-05-04 16:05 51.39453 -3.33094 219 ft 8 kts 308°
2026-05-04 16:05 51.39501 -3.33241 221 ft 7 kts 296°
2026-05-04 16:06 51.39525 -3.33314 219 ft 8 kts 297°
2026-05-04 16:06 51.39593 -3.33529 222 ft 8 kts 297°
2026-05-04 16:07 51.39625 -3.33629 222 ft 8 kts 297°
2026-05-04 16:07 51.39692 -3.33843 220 ft 7 kts 296°
2026-05-04 16:08 51.39713 -3.33911 222 ft 7 kts 296°
2026-05-04 16:08 51.39763 -3.33866 220 ft 5 kts 81°
2026-05-04 16:09 51.39765 -3.33847 222 ft 0 kts 81°